Location: Unspecified
(0.0000°N, 0.0000°E)
Time: 11:10:11
(UTC+00:00)

Courier 1B Rocket - Pass Details

Date: 23 November 2019
Orbit: 921 x 1202 km, 28.2° (Epoch: 14 December)

Event Time Altitude Azimuth Distance (km) Brightness Sun altitude
Rises 10:17:12 0° 255° (WSW) 3,547 7.8 60.2°
Reaches altitude 10° 10:19:56 10° 262° (W) 2,605 7.2 60.7°
Maximum altitude 10:25:44 40° 331° (NNW) 1,328 6.0 61.7°
Drops below altitude 10° 10:31:44 10° 40° (NE) 2,683 7.4 62.7°
Sets 10:34:36 0° 47° (NE) 3,666 8.0 63.1°
